This is the latest recevied weather packets stored in our database for station/object K1BES. If no packets are shown the sender has not sent any weather packets the latest 10 day(s).
| Time | Temp. | Humidity | Pressure | Rain* | Wind** | Luminosity | Snow |
|---|---|---|---|---|---|---|---|
| 1777948658 | 22.22° C | 85% | 1017.3 hPa | 0 mm | - | 0 W/m² | - |
| 1777948355 | 22.22° C | 85% | 1017.2 hPa | 0 mm | - | 0 W/m² | - |
| 1777948052 | 22.22° C | 85% | 1017.2 hPa | 0 mm | - | 0 W/m² | - |
| 1777947749 | 22.22° C | 86% | 1017.1 hPa | 0 mm | - | 0 W/m² | - |
| 1777947446 | 22.22° C | 86% | 1017.2 hPa | 0 mm | - | 0 W/m² | - |
| 1777947143 | 22.22° C | 86% | 1017.3 hPa | 0 mm | - | 0 W/m² | - |
| 1777946839 | 22.22° C | 87% | 1017.3 hPa | 0 mm | - | 0 W/m² | - |
| 1777946534 | 22.22° C | 87% | 1017.1 hPa | 0 mm | - | 0 W/m² | - |
| 1777946232 | 22.22° C | 87% | 1017 hPa | 0 mm | - | 0 W/m² | - |
| 1777945929 | 22.22° C | 87% | 1017 hPa | 0 mm | - | 0 W/m² | - |
| 1777945625 | 22.22° C | 88% | 1016.8 hPa | 0 mm | - | 0 W/m² | - |
| 1777945322 | 22.22° C | 88% | 1016.7 hPa | 0 mm | - | 0 W/m² | - |
| 1777945020 | 22.22° C | 89% | 1016.4 hPa | 0 mm | - | 0 W/m² | - |
| 1777944717 | 22.22° C | 88% | 1016.7 hPa | 0 mm | - | 0 W/m² | - |
| 1777944415 | 22.22° C | 90% | 1017 hPa | 0 mm | - | 0 W/m² | - |
| 1777944112 | 22.22° C | 90% | 1016.7 hPa | 0 mm | - | 0 W/m² | - |
| 1777943813 | 22.22° C | 90% | 1016.7 hPa | 0 mm | - | 0 W/m² | - |
| 1777943510 | 22.22° C | 91% | 1016.9 hPa | 0 mm | - | 0 W/m² | - |
| 1777943205 | 21.67° C | 91% | 1016.8 hPa | 0 mm | - | 0 W/m² | - |
| 1777942902 | 22.22° C | 90% | 1016.6 hPa | 1.27 mm | - | 0 W/m² | - |
| 1777942598 | 22.22° C | 90% | 1016.4 hPa | 1.27 mm | - | 0 W/m² | - |
| 1777942295 | 22.22° C | 88% | 1016.6 hPa | 23.37 mm | - | 0 W/m² | - |
| 1777941993 | 22.78° C | 87% | 1016.5 hPa | 26.42 mm | - | 0 W/m² | - |
| 1777941689 | 23.33° C | 85% | 1016.5 hPa | 6.1 mm | - | 0 W/m² | - |
| 1777941386 | 23.89° C | 82% | 1016.4 hPa | 11.94 mm | - | 0 W/m² | - |
* Rain latest hour (hover to see other rain measurements)
** Current wind speed in m/s (hover to see current wind gust speed)